Time,TemperatureF,DewpointF,PressureIn,WindDirection,WindDirectionDegrees,WindSpeedMPH,WindSpeedGustMPH,Humidity,HourlyPrecipIn,Conditions,Clouds,dailyrainin,SoftwareType,DateUTC
2013-02-10 00:00:00,37.8,15.0,29.68,NNE,13,0.0,0.0,39,0.00,CLR,,0.03,WeatherDisplay:10.37,2013-02-10 05:00:00,
2013-02-10 00:05:00,37.6,15.4,29.68,NNE,13,0.0,0.0,40,0.00,RA,,0.00,WeatherDisplay:10.37,2013-02-10 05:05:00,
2013-02-10 00:10:00,37.5,15.3,29.68,NNE,13,0.0,0.0,40,0.00,CLR,,0.00,WeatherDisplay:10.37,2013-02-10 05:10:00,
2013-02-10 00:15:00,37.3,16.8,29.69,NNE,13,0.0,0.0,43,0.00,CLR,,0.00,WeatherDisplay:10.37,2013-02-10 05:15:00,
2013-02-10 00:20:00,36.6,17.7,29.69,NNE,13,0.0,0.0,46,0.00,CLR,,0.00,WeatherDisplay:10.37,2013-02-10 05:20:00,
2013-02-10 00:25:00,36.2,17.9,29.69,NNE,13,0.0,0.0,47,0.00,CLR,,0.00,WeatherDisplay:10.37,2013-02-10 05:25:00,
2013-02-10 00:30:00,35.8,16.5,29.69,NNE,13,0.0,0.0,45,0.00,CLR,,0.00,WeatherDisplay:10.37,2013-02-10 05:30:00,
2013-02-10 00:35:00,35.5,15.7,29.69,NNE,13,0.0,0.0,44,0.00,CLR,,0.00,WeatherDisplay:10.37,2013-02-10 05:35:00,
2013-02-10 00:40:00,35.3,16.0,29.69,NNE,13,0.0,0.0,45,0.00,CLR,,0.00,WeatherDisplay:10.37,2013-02-10 05:40:00,
2013-02-10 00:45:00,35.2,16.0,29.70,NNE,13,0.0,0.0,45,0.00,CLR,,0.00,WeatherDisplay:10.37,2013-02-10 05:45:00,
2013-02-10 00:50:00,34.9,17.2,29.70,NNE,13,0.0,0.0,48,0.00,CLR,,0.00,WeatherDisplay:10.37,2013-02-10 05:50:00,
2013-02-10 00:55:00,34.4,16.2,29.70,NNE,13,0.0,0.0,47,0.00,CLR,,0.00,WeatherDisplay:10.37,2013-02-10 05:55:00,
2013-02-10 01:00:00,34.1,15.9,29.70,NNE,13,0.0,0.0,47,0.00,CLR,,0.00,WeatherDisplay:10.37,2013-02-10 06:00:00,
2013-02-10 01:05:00,34.3,16.1,29.70,NNE,13,0.0,0.0,47,0.00,CLR,,0.00,WeatherDisplay:10.37,2013-02-10 06:05:00,
2013-02-10 01:10:00,35.0,16.3,29.70,NNE,13,0.0,0.0,46,0.00,CLR,,0.00,WeatherDisplay:10.37,2013-02-10 06:10:00,
2013-02-10 01:15:00,36.0,16.2,29.70,NE,45,2.3,2.3,44,0.00,CLR,,0.00,WeatherDisplay:10.37,2013-02-10 06:15:00,
2013-02-10 01:20:00,36.8,16.4,29.70,NE,49,1.1,1.1,43,0.00,CLR,,0.00,WeatherDisplay:10.37,2013-02-10 06:20:00,
2013-02-10 01:25:00,36.9,15.9,29.70,NE,49,0.0,0.0,42,0.00,CLR,,0.00,WeatherDisplay:10.37,2013-02-10 06:25:00,
2013-02-10 01:30:00,37.2,16.2,29.70,NE,49,0.0,0.0,42,0.00,CLR,,0.00,WeatherDisplay:10.37,2013-02-10 06:30:00,
2013-02-10 01:35:00,37.2,16.2,29.70,NE,49,2.3,2.3,42,0.00,CLR,,0.00,WeatherDisplay:10.37,2013-02-10 06:35:00,
2013-02-10 01:40:00,37.0,16.5,29.70,East,99,4.6,4.6,43,0.00,CLR,,0.00,WeatherDisplay:10.37,2013-02-10 06:40:00,
2013-02-10 01:45:00,36.5,16.6,29.70,ESE,109,4.6,4.6,44,0.00,CLR,,0.00,WeatherDisplay:10.37,2013-02-10 06:45:00,
2013-02-10 01:50:00,35.5,17.2,29.70,ESE,117,2.3,0.0,47,0.00,CLR,,0.00,WeatherDisplay:10.37,2013-02-10 06:50:00,
2013-02-10 01:55:00,34.7,17.5,29.70,ESE,113,2.3,2.3,49,0.00,CLR,,0.00,WeatherDisplay:10.37,2013-02-10 06:55:00,
2013-02-10 02:00:00,34.4,17.7,29.71,ESE,113,1.1,0.0,50,0.00,CLR,,0.00,WeatherDisplay:10.37,2013-02-10 07:00:00,
2013-02-10 02:05:00,34.0,17.7,29.71,ESE,110,1.1,1.1,51,0.00,CLR,,0.00,WeatherDisplay:10.37,2013-02-10 07:05:00,
2013-02-10 02:10:00,34.0,17.3,29.71,ESE,110,1.1,0.0,50,0.00,CLR,,0.00,WeatherDisplay:10.37,2013-02-10 07:10:00,
2013-02-10 02:15:00,34.0,17.3,29.72,ESE,102,1.1,1.1,50,0.00,CLR,,0.00,WeatherDisplay:10.37,2013-02-10 07:15:00,
2013-02-10 02:20:00,34.1,17.4,29.72,ESE,103,2.3,2.3,50,0.00,CLR,,0.00,WeatherDisplay:10.37,2013-02-10 07:20:00,
2013-02-10 02:25:00,34.1,17.4,29.72,ESE,103,2.3,2.3,50,0.00,CLR,,0.00,WeatherDisplay:10.37,2013-02-10 07:25:00,
2013-02-10 02:30:00,33.8,17.1,29.72,ESE,103,0.0,0.0,50,0.00,CLR,,0.00,WeatherDisplay:10.37,2013-02-10 07:30:00,
2013-02-10 02:35:00,33.7,17.0,29.72,ESE,103,0.0,0.0,50,0.00,CLR,,0.00,WeatherDisplay:10.37,2013-02-10 07:35:00,
2013-02-10 02:40:00,33.5,16.8,29.73,ESE,107,1.1,0.0,50,0.00,CLR,,0.00,WeatherDisplay:10.37,2013-02-10 07:40:00,
2013-02-10 02:45:00,33.4,16.7,29.73,ESE,116,0.0,0.0,50,0.00,CLR,,0.00,WeatherDisplay:10.37,2013-02-10 07:45:00,
2013-02-10 02:50:00,33.2,17.0,29.73,ESE,116,0.0,0.0,51,0.00,CLR,,0.00,WeatherDisplay:10.37,2013-02-10 07:50:00,
2013-02-10 02:55:00,33.1,16.5,29.73,SE,137,3.5,3.5,50,0.00,CLR,,0.00,WeatherDisplay:10.37,2013-02-10 07:55:00,
2013-02-10 03:00:00,32.9,16.7,29.73,SE,127,0.0,0.0,51,0.00,CLR,,0.00,WeatherDisplay:10.37,2013-02-10 08:00:00,
2013-02-10 03:05:00,32.8,16.6,29.73,ESE,112,3.5,3.5,51,0.00,CLR,,0.00,WeatherDisplay:10.37,2013-02-10 08:05:00,
2013-02-10 03:10:00,32.5,16.4,29.73,SE,124,0.0,0.4,51,0.00,CLR,,0.00,WeatherDisplay:10.37,2013-02-10 08:10:00,
2013-02-10 03:15:00,32.5,16.4,29.73,SE,124,0.0,0.0,51,0.00,CLR,,0.00,WeatherDisplay:10.37,2013-02-10 08:15:00,
2013-02-10 03:20:00,32.5,16.4,29.73,ESE,103,0.0,0.0,51,0.00,CLR,,0.00,WeatherDisplay:10.37,2013-02-10 08:20:00,
2013-02-10 03:25:00,32.5,16.4,29.73,SE,134,0.0,0.3,51,0.00,CLR,,0.00,WeatherDisplay:10.37,2013-02-10 08:25:00,
2013-02-10 03:30:00,32.5,16.4,29.73,ESE,107,1.1,0.0,51,0.00,CLR,,0.00,WeatherDisplay:10.37,2013-02-10 08:30:00,
2013-02-10 03:35:00,32.4,16.3,29.73,ESE,107,2.3,2.3,51,0.00,CLR,,0.00,WeatherDisplay:10.37,2013-02-10 08:35:00,
2013-02-10 03:40:00,32.5,16.4,29.73,ESE,107,2.3,2.3,51,0.00,CLR,,0.00,WeatherDisplay:10.37,2013-02-10 08:40:00,
2013-02-10 03:45:00,32.5,16.4,29.73,SE,128,2.0,2.0,51,0.00,CLR,,0.00,WeatherDisplay:10.37,2013-02-10 08:45:00,
2013-02-10 03:50:00,32.5,16.4,29.73,ESE,117,0.0,0.1,51,0.00,CLR,,0.00,WeatherDisplay:10.37,2013-02-10 08:50:00,
2013-02-10 03:55:00,32.2,16.1,29.73,ESE,109,1.1,1.1,51,0.00,CLR,,0.00,WeatherDisplay:10.37,2013-02-10 08:55:00,
2013-02-10 04:00:00,32.2,16.1,29.73,ESE,120,2.3,2.3,51,0.00,CLR,,0.00,WeatherDisplay:10.37,2013-02-10 09:00:00,
2013-02-10 04:05:00,32.2,16.1,29.73,SE,128,1.1,0.0,51,0.00,CLR,,0.00,WeatherDisplay:10.37,2013-02-10 09:05:00,
2013-02-10 04:10:00,32.2,15.6,29.73,SE,128,0.0,0.0,50,0.00,CLR,,0.00,WeatherDisplay:10.37,2013-02-10 09:10:00,
2013-02-10 04:15:00,32.2,15.6,29.73,SE,130,2.3,2.3,50,0.00,CLR,,0.00,WeatherDisplay:10.37,2013-02-10 09:15:00,
2013-02-10 04:20:00,32.1,15.5,29.73,SE,130,1.1,1.1,50,0.00,CLR,,0.00,WeatherDisplay:10.37,2013-02-10 09:20:00,
2013-02-10 04:25:00,31.9,15.3,29.73,SE,130,0.0,0.0,50,0.00,CLR,,0.00,WeatherDisplay:10.37,2013-02-10 09:25:00,
2013-02-10 04:30:00,31.9,15.8,29.73,SE,131,0.0,0.4,51,0.00,CLR,,0.00,WeatherDisplay:10.37,2013-02-10 09:30:00,
2013-02-10 04:35:00,31.9,15.3,29.73,ESE,116,1.1,0.0,50,0.00,CLR,,0.00,WeatherDisplay:10.37,2013-02-10 09:35:00,
2013-02-10 04:40:00,31.9,15.8,29.73,ESE,116,1.1,1.1,51,0.00,CLR,,0.00,WeatherDisplay:10.37,2013-02-10 09:40:00,
2013-02-10 04:45:00,31.8,15.7,29.73,ESE,116,0.0,0.2,51,0.00,CLR,,0.00,WeatherDisplay:10.37,2013-02-10 09:45:00,
2013-02-10 04:50:00,31.6,15.5,29.73,ESE,116,1.0,0.0,51,0.00,CLR,,0.00,WeatherDisplay:10.37,2013-02-10 09:50:00,
2013-02-10 04:55:00,31.6,15.5,29.73,ESE,102,2.3,2.3,51,0.00,CLR,,0.00,WeatherDisplay:10.37,2013-02-10 09:55:00,
2013-02-10 05:00:00,31.6,15.5,29.73,SE,127,1.1,1.1,51,0.00,CLR,,0.00,WeatherDisplay:10.37,2013-02-10 10:00:00,
2013-02-10 05:05:00,31.8,15.7,29.73,East,95,3.5,3.5,51,0.00,CLR,,0.00,WeatherDisplay:10.37,2013-02-10 10:05:00,
2013-02-10 05:10:00,31.8,15.7,29.73,ESE,102,1.1,0.0,51,0.00,CLR,,0.00,WeatherDisplay:10.37,2013-02-10 10:10:00,
2013-02-10 05:15:00,31.8,15.3,29.73,ESE,116,4.6,4.6,50,0.00,CLR,,0.00,WeatherDisplay:10.37,2013-02-10 10:15:00,
2013-02-10 05:20:00,31.8,15.7,29.73,ESE,114,2.3,0.0,51,0.00,CLR,,0.00,WeatherDisplay:10.37,2013-02-10 10:20:00,
2013-02-10 05:25:00,31.6,15.5,29.74,ESE,114,0.0,0.0,51,0.00,CLR,,0.00,WeatherDisplay:10.37,2013-02-10 10:25:00,
2013-02-10 05:30:00,31.5,15.4,29.74,ESE,120,1.1,0.0,51,0.00,CLR,,0.00,WeatherDisplay:10.37,2013-02-10 10:30:00,
2013-02-10 05:35:00,31.6,15.5,29.74,ESE,121,0.0,0.0,51,0.00,CLR,,0.00,WeatherDisplay:10.37,2013-02-10 10:35:00,
2013-02-10 05:40:00,31.6,16.0,29.74,SE,134,3.5,3.5,52,0.00,CLR,,0.00,WeatherDisplay:10.37,2013-02-10 10:40:00,
2013-02-10 05:45:00,31.6,15.5,29.74,ESE,106,2.3,2.3,51,0.00,CLR,,0.00,WeatherDisplay:10.37,2013-02-10 10:45:00,
2013-02-10 05:50:00,31.8,15.7,29.74,ESE,116,3.5,0.0,51,0.00,CLR,,0.00,WeatherDisplay:10.37,2013-02-10 10:50:00,
2013-02-10 05:55:00,31.8,15.7,29.74,ESE,110,0.0,0.6,51,0.00,CLR,,0.00,WeatherDisplay:10.37,2013-02-10 10:55:00,
2013-02-10 06:00:00,31.8,15.7,29.74,SE,136,3.5,3.5,51,0.00,CLR,,0.00,WeatherDisplay:10.37,2013-02-10 11:00:00,
2013-02-10 06:05:00,31.9,15.8,29.74,ESE,113,1.1,1.1,51,0.00,CLR,,0.00,WeatherDisplay:10.37,2013-02-10 11:05:00,
2013-02-10 06:10:00,31.9,15.3,29.75,ESE,104,2.0,2.0,50,0.00,CLR,,0.00,WeatherDisplay:10.37,2013-02-10 11:10:00,
2013-02-10 06:15:00,32.1,15.5,29.75,ESE,109,3.5,0.0,50,0.00,CLR,,0.00,WeatherDisplay:10.37,2013-02-10 11:15:00,
2013-02-10 06:20:00,31.9,15.3,29.75,ESE,113,0.0,0.0,50,0.00,CLR,,0.00,WeatherDisplay:10.37,2013-02-10 11:20:00,
2013-02-10 06:25:00,31.8,15.7,29.76,ESE,110,5.8,5.8,51,0.00,CLR,,0.00,WeatherDisplay:10.37,2013-02-10 11:25:00,
2013-02-10 06:30:00,31.6,15.5,29.76,ESE,113,1.1,1.1,51,0.00,CLR,,0.00,WeatherDisplay:10.37,2013-02-10 11:30:00,
2013-02-10 06:35:00,31.5,15.4,29.76,East,100,2.3,2.3,51,0.00,CLR,,0.00,WeatherDisplay:10.37,2013-02-10 11:35:00,
2013-02-10 06:40:00,31.8,15.7,29.76,East,89,0.0,0.2,51,0.00,CLR,,0.00,WeatherDisplay:10.37,2013-02-10 11:40:00,
2013-02-10 06:45:00,31.6,15.1,29.76,ESE,103,3.5,3.5,50,0.00,CLR,,0.00,WeatherDisplay:10.37,2013-02-10 11:45:00,
2013-02-10 06:50:00,31.6,15.5,29.76,ESE,103,2.3,0.0,51,0.00,CLR,,0.00,WeatherDisplay:10.37,2013-02-10 11:50:00,
2013-02-10 06:55:00,31.5,15.4,29.77,ESE,103,0.0,0.0,51,0.00,CLR,,0.00,WeatherDisplay:10.37,2013-02-10 11:55:00,
2013-02-10 07:00:00,31.3,15.2,29.77,ESE,103,1.1,1.1,51,0.00,CLR,,0.00,WeatherDisplay:10.37,2013-02-10 12:00:00,
2013-02-10 07:06:00,31.5,15.4,29.77,ESE,104,2.3,2.3,51,0.00,CLR,,0.00,WeatherDisplay:10.37,2013-02-10 12:06:00,
2013-02-10 07:11:00,31.3,15.2,29.78,ESE,103,2.3,0.0,51,0.00,CLR,,0.00,WeatherDisplay:10.37,2013-02-10 12:11:00,
2013-02-10 07:16:00,31.0,15.4,29.78,ESE,103,0.0,0.3,52,0.00,CLR,,0.00,WeatherDisplay:10.37,2013-02-10 12:16:00,
2013-02-10 07:21:00,31.0,15.4,29.78,ESE,103,1.1,0.0,52,0.00,CLR,,0.00,WeatherDisplay:10.37,2013-02-10 12:21:00,
2013-02-10 07:26:00,30.9,15.8,29.78,ESE,103,0.0,0.0,53,0.00,CLR,,0.00,WeatherDisplay:10.37,2013-02-10 12:26:00,
2013-02-10 07:31:00,30.7,15.6,29.78,ESE,103,0.0,0.2,53,0.00,CLR,,0.00,WeatherDisplay:10.37,2013-02-10 12:31:00,
2013-02-10 07:36:00,30.7,16.0,29.78,ESE,103,0.0,0.0,54,0.00,CLR,,0.00,WeatherDisplay:10.37,2013-02-10 12:36:00,
2013-02-10 07:41:00,30.7,16.0,29.79,ESE,103,0.0,0.0,54,0.00,CLR,,0.00,WeatherDisplay:10.37,2013-02-10 12:41:00,
2013-02-10 07:46:00,30.7,16.4,29.79,ESE,103,0.0,0.0,55,0.00,CLR,,0.00,WeatherDisplay:10.37,2013-02-10 12:46:00,
2013-02-10 07:51:00,30.9,16.6,29.79,ESE,103,0.0,0.0,55,0.00,CLR,,0.00,WeatherDisplay:10.37,2013-02-10 12:51:00,
2013-02-10 07:56:00,31.0,16.3,29.79,ESE,103,0.0,0.0,54,0.00,CLR,,0.00,WeatherDisplay:10.37,2013-02-10 12:56:00,
2013-02-10 08:01:00,31.3,16.6,29.79,ESE,103,1.1,1.1,54,0.00,CLR,,0.00,WeatherDisplay:10.37,2013-02-10 13:01:00,
2013-02-10 08:06:00,31.3,16.6,29.79,ESE,103,1.1,1.1,54,0.00,CLR,,0.00,WeatherDisplay:10.37,2013-02-10 13:06:00,
2013-02-10 08:11:00,31.5,16.3,29.79,ESE,104,4.6,4.6,53,0.00,CLR,,0.00,WeatherDisplay:10.37,2013-02-10 13:11:00,
2013-02-10 08:16:00,31.5,16.7,29.79,ESE,104,0.0,0.0,54,0.00,CLR,,0.00,WeatherDisplay:10.37,2013-02-10 13:16:00,
2013-02-10 08:21:00,31.6,16.8,29.79,ESE,104,0.0,0.0,54,0.00,CLR,,0.00,WeatherDisplay:10.37,2013-02-10 13:21:00,
2013-02-10 08:26:00,31.8,16.6,29.80,ESE,104,2.3,0.0,53,0.00,CLR,,0.00,WeatherDisplay:10.37,2013-02-10 13:26:00,
2013-02-10 08:31:00,31.9,16.7,29.80,ESE,104,1.1,0.0,53,0.00,CLR,,0.00,WeatherDisplay:10.37,2013-02-10 13:31:00,
2013-02-10 08:36:00,32.2,16.5,29.80,ESE,104,2.3,0.0,52,0.00,CLR,,0.00,WeatherDisplay:10.37,2013-02-10 13:36:00,
2013-02-10 08:41:00,32.4,16.3,29.81,ESE,104,1.1,1.1,51,0.00,CLR,,0.00,WeatherDisplay:10.37,2013-02-10 13:41:00,
2013-02-10 08:46:00,32.8,16.6,29.81,ESE,104,3.5,3.5,51,0.00,CLR,,0.00,WeatherDisplay:10.37,2013-02-10 13:46:00,
2013-02-10 08:51:00,33.1,16.9,29.81,ESE,104,1.1,1.1,51,0.00,CLR,,0.00,WeatherDisplay:10.37,2013-02-10 13:51:00,
2013-02-10 08:56:00,33.5,16.8,29.81,ESE,104,3.5,3.5,50,0.00,CLR,,0.00,WeatherDisplay:10.37,2013-02-10 13:56:00,
2013-02-10 09:01:00,34.0,17.3,29.81,ESE,103,1.1,1.1,50,0.00,CLR,,0.00,WeatherDisplay:10.37,2013-02-10 14:01:00,
2013-02-10 09:06:00,34.7,17.9,29.81,ESE,110,3.5,0.0,50,0.00,CLR,,0.00,WeatherDisplay:10.37,2013-02-10 14:06:00,
2013-02-10 09:11:00,35.2,17.9,29.81,ESE,110,0.0,0.5,49,0.00,CLR,,0.00,WeatherDisplay:10.37,2013-02-10 14:11:00,
2013-02-10 09:16:00,35.3,17.5,29.81,ESE,120,3.5,0.0,48,0.00,CLR,,0.00,WeatherDisplay:10.37,2013-02-10 14:16:00,
2013-02-10 09:21:00,35.2,17.4,29.81,ESE,119,0.0,0.3,48,0.00,CLR,,0.00,WeatherDisplay:10.37,2013-02-10 14:21:00,
2013-02-10 09:26:00,35.2,17.0,29.80,East,92,4.6,4.6,47,0.00,CLR,,0.00,WeatherDisplay:10.37,2013-02-10 14:26:00,
2013-02-10 09:31:00,35.3,17.5,29.80,ESE,103,4.6,0.0,48,0.00,CLR,,0.00,WeatherDisplay:10.37,2013-02-10 14:31:00,
2013-02-10 09:36:00,35.5,17.7,29.80,ESE,104,3.5,3.5,48,0.00,CLR,,0.00,WeatherDisplay:10.37,2013-02-10 14:36:00,
2013-02-10 09:41:00,35.9,18.1,29.81,ESE,104,2.3,2.3,48,0.00,CLR,,0.00,WeatherDisplay:10.37,2013-02-10 14:41:00,
2013-02-10 09:46:00,36.5,18.2,29.81,ESE,104,0.0,0.9,47,0.00,CLR,,0.00,WeatherDisplay:10.37,2013-02-10 14:46:00,
2013-02-10 09:51:00,36.9,18.5,29.81,SSE,155,1.1,0.0,47,0.00,CLR,,0.00,WeatherDisplay:10.37,2013-02-10 14:51:00,
2013-02-10 09:56:00,37.2,17.8,29.81,ESE,119,2.3,2.3,45,0.00,CLR,,0.00,WeatherDisplay:10.37,2013-02-10 14:56:00,
2013-02-10 10:01:00,37.3,18.4,29.81,SSE,158,2.3,2.3,46,0.00,CLR,,0.00,WeatherDisplay:10.37,2013-02-10 15:01:00,
2013-02-10 10:06:00,37.0,17.6,29.81,East,100,4.6,4.6,45,0.00,CLR,,0.00,WeatherDisplay:10.37,2013-02-10 15:06:00,
2013-02-10 10:11:00,36.9,17.5,29.81,SSE,148,3.5,3.5,45,0.00,CLR,,0.00,WeatherDisplay:10.37,2013-02-10 15:11:00,
2013-02-10 10:16:00,37.2,18.3,29.81,ESE,109,1.1,0.0,46,0.72,RA,,0.72,WeatherDisplay:10.37,2013-02-10 15:16:00,
2013-02-10 10:21:00,37.3,18.4,29.81,ESE,109,1.1,0.0,46,0.72,RA,,0.72,WeatherDisplay:10.37,2013-02-10 15:21:00,
2013-02-10 10:26:00,37.6,19.2,29.81,SE,133,0.0,0.0,47,0.72,,,0.72,WeatherDisplay:10.37,2013-02-10 15:26:00,
2013-02-10 10:31:00,37.6,19.7,29.81,SE,133,0.0,0.0,48,0.72,CLR,,0.72,WeatherDisplay:10.37,2013-02-10 15:31:00,
2013-02-10 10:36:00,37.8,19.3,29.81,SE,131,1.1,1.1,47,0.72,CLR,,0.73,WeatherDisplay:10.37,2013-02-10 15:36:00,
2013-02-10 10:41:00,37.6,18.7,29.81,ESE,116,0.0,0.0,46,0.73,RA,,0.73,WeatherDisplay:10.37,2013-02-10 15:41:00,
2013-02-10 10:46:00,37.5,19.6,29.81,East,89,2.0,2.0,48,0.73,RA,,0.73,WeatherDisplay:10.37,2013-02-10 15:46:00,
2013-02-10 10:51:00,37.2,19.3,29.81,East,89,2.3,2.3,48,0.73,CLR,,0.73,WeatherDisplay:10.37,2013-02-10 15:51:00,
2013-02-10 10:56:00,37.2,19.3,29.81,SE,126,2.3,2.3,48,0.73,CLR,,0.73,WeatherDisplay:10.37,2013-02-10 15:56:00,
2013-02-10 11:01:00,37.2,19.3,29.81,East,96,2.3,2.3,48,0.73,CLR,,0.73,WeatherDisplay:10.37,2013-02-10 16:01:00,
2013-02-10 11:06:00,37.2,19.3,29.81,ESE,121,1.1,1.1,48,0.74,RA,,0.74,WeatherDisplay:10.37,2013-02-10 16:06:00,
2013-02-10 11:11:00,37.3,19.9,29.81,East,97,1.1,0.0,49,0.75,RA,,0.75,WeatherDisplay:10.37,2013-02-10 16:11:00,
2013-02-10 11:16:00,37.6,20.1,29.81,East,97,0.0,0.0,49,0.03,RA,,0.75,WeatherDisplay:10.37,2013-02-10 16:16:00,
2013-02-10 11:21:00,38.0,20.5,29.81,East,97,0.0,0.0,49,0.03,,,0.76,WeatherDisplay:10.37,2013-02-10 16:21:00,
2013-02-10 11:26:00,38.0,20.5,29.81,East,97,0.0,0.0,49,0.04,RA,,0.76,WeatherDisplay:10.37,2013-02-10 16:26:00,
2013-02-10 11:31:00,38.0,21.9,29.81,East,97,0.0,0.0,52,0.04,RA,,0.76,WeatherDisplay:10.37,2013-02-10 16:31:00,
2013-02-10 11:36:00,39.1,22.9,29.81,SSW,209,0.0,0.0,52,0.04,CLR,,0.76,WeatherDisplay:10.37,2013-02-10 16:36:00,
2013-02-10 11:41:00,39.2,20.1,29.80,ESE,119,2.3,2.3,46,0.04,RA,,0.77,WeatherDisplay:10.37,2013-02-10 16:41:00,
2013-02-10 11:46:00,39.3,21.2,29.80,ESE,119,0.0,0.0,48,0.04,RA,,0.77,WeatherDisplay:10.37,2013-02-10 16:46:00,
2013-02-10 11:51:00,40.1,21.0,29.80,West,268,2.3,2.3,46,0.05,RA,,0.78,WeatherDisplay:10.37,2013-02-10 16:51:00,
2013-02-10 11:56:00,40.2,19.5,29.79,West,281,0.0,0.0,43,0.05,RA,,0.78,WeatherDisplay:10.37,2013-02-10 16:56:00,
2013-02-10 12:01:00,40.2,19.5,29.79,West,280,0.0,0.0,43,0.05,CLR,,0.78,WeatherDisplay:10.37,2013-02-10 17:01:00,
2013-02-10 12:06:00,40.5,20.8,29.79,SSE,160,0.0,0.0,45,0.05,RA,,0.79,WeatherDisplay:10.37,2013-02-10 17:06:00,
2013-02-10 12:11:00,40.6,19.8,29.79,SSE,160,1.1,0.0,43,0.04,RA,,0.79,WeatherDisplay:10.37,2013-02-10 17:11:00,
2013-02-10 12:16:00,40.8,19.5,29.79,SSE,160,0.0,0.0,42,0.04,CLR,,0.79,WeatherDisplay:10.37,2013-02-10 17:16:00,
2013-02-10 12:21:00,40.9,20.6,29.79,SSE,160,1.1,0.0,44,0.05,RA,,0.80,WeatherDisplay:10.37,2013-02-10 17:21:00,
2013-02-10 12:26:00,40.9,19.5,29.78,SSE,160,1.1,1.1,42,0.04,RA,,0.80,WeatherDisplay:10.37,2013-02-10 17:26:00,
2013-02-10 12:31:00,41.2,19.8,29.78,SSE,167,2.3,2.3,42,0.04,CLR,,0.80,WeatherDisplay:10.37,2013-02-10 17:31:00,
2013-02-10 12:36:00,41.8,20.9,29.78,South,176,2.3,2.3,43,0.05,RA,,0.81,WeatherDisplay:10.37,2013-02-10 17:36:00,
2013-02-10 12:41:00,42.1,20.6,29.76,SW,226,2.3,2.3,42,0.04,RA,,0.81,WeatherDisplay:10.37,2013-02-10 17:41:00,
2013-02-10 12:46:00,42.2,20.7,29.76,SE,133,0.0,0.0,42,0.04,CLR,,0.81,WeatherDisplay:10.37,2013-02-10 17:46:00,
2013-02-10 12:51:00,42.5,21.5,29.76,SE,133,0.0,0.0,43,0.03,CLR,,0.81,WeatherDisplay:10.37,2013-02-10 17:51:00,
2013-02-10 12:56:00,42.9,23.0,29.76,SE,133,1.1,0.0,45,0.03,CLR,,0.81,WeatherDisplay:10.37,2013-02-10 17:56:00,
2013-02-10 13:01:00,42.8,21.8,29.76,ESE,117,0.0,0.0,43,0.03,CLR,,0.81,WeatherDisplay:10.37,2013-02-10 18:01:00,
2013-02-10 13:06:00,42.9,21.9,29.76,ESE,117,0.0,0.0,43,0.02,CLR,,0.81,WeatherDisplay:10.37,2013-02-10 18:06:00,
2013-02-10 13:11:00,43.5,21.9,29.75,ESE,117,0.0,0.0,42,0.02,CLR,,0.81,WeatherDisplay:10.37,2013-02-10 18:11:00,
2013-02-10 13:16:00,44.1,19.5,29.75,SSE,148,3.5,0.0,37,0.03,RA,,0.82,WeatherDisplay:10.37,2013-02-10 18:16:00,
2013-02-10 13:21:00,44.6,18.6,29.75,WSW,239,5.8,5.8,35,0.02,RA,,0.82,WeatherDisplay:10.37,2013-02-10 18:21:00,
2013-02-10 13:26:00,45.2,21.7,29.73,ESE,116,0.0,0.0,39,0.02,CLR,,0.82,WeatherDisplay:10.37,2013-02-10 18:26:00,
2013-02-10 13:31:00,46.0,19.8,29.73,ESE,104,2.3,2.3,35,0.02,CLR,,0.82,WeatherDisplay:10.37,2013-02-10 18:31:00,
2013-02-10 13:36:00,46.4,18.8,29.73,SSE,154,5.8,5.8,33,0.01,CLR,,0.82,WeatherDisplay:10.37,2013-02-10 18:36:00,
2013-02-10 13:41:00,47.0,17.9,29.73,SE,141,2.3,2.3,31,0.01,CLR,,0.82,WeatherDisplay:10.37,2013-02-10 18:41:00,
2013-02-10 13:46:00,47.3,19.6,29.73,SE,131,0.0,0.0,33,0.02,RA,,0.83,WeatherDisplay:10.37,2013-02-10 18:46:00,
2013-02-10 13:51:00,47.6,19.9,29.73,SSW,203,1.1,0.0,33,0.02,RA,,0.83,WeatherDisplay:10.37,2013-02-10 18:51:00,
2013-02-10 13:56:00,48.0,18.8,29.72,SSE,151,3.5,3.5,31,0.02,CLR,,0.83,WeatherDisplay:10.37,2013-02-10 18:56:00,
2013-02-10 14:01:00,48.5,18.4,29.72,SW,222,0.0,0.2,30,0.02,CLR,,0.83,WeatherDisplay:10.37,2013-02-10 19:01:00,
2013-02-10 14:06:00,48.6,19.3,29.72,SSW,209,1.1,1.1,31,0.02,CLR,,0.83,WeatherDisplay:10.37,2013-02-10 19:06:00,
2013-02-10 14:11:00,49.1,18.2,29.71,SSE,147,3.5,3.5,29,0.02,CLR,,0.83,WeatherDisplay:10.37,2013-02-10 19:11:00,
2013-02-10 14:19:00,48.5,16.8,29.71,ESE,119,5.8,5.8,28,0.02,RA,,0.84,WeatherDisplay:10.37,2013-02-10 19:19:00,
2013-02-10 14:24:00,48.5,18.4,29.71,ESE,109,0.0,0.0,30,0.02,RA,,0.84,WeatherDisplay:10.37,2013-02-10 19:24:00,
2013-02-10 14:29:00,48.8,19.5,29.70,SE,137,3.5,3.5,31,0.02,,,0.84,WeatherDisplay:10.37,2013-02-10 19:29:00,
2013-02-10 14:34:00,48.8,17.9,29.70,East,96,4.6,4.6,29,0.02,CLR,,0.84,WeatherDisplay:10.37,2013-02-10 19:34:00,
2013-02-10 14:39:00,48.6,19.3,29.70,SE,138,3.5,3.5,31,0.02,CLR,,0.84,WeatherDisplay:10.37,2013-02-10 19:39:00,
2013-02-10 14:44:00,49.2,19.8,29.70,ESE,109,2.3,2.3,31,0.01,CLR,,0.84,WeatherDisplay:10.37,2013-02-10 19:44:00,
2013-02-10 14:49:00,49.8,18.8,29.70,SSE,151,2.3,2.3,29,0.01,CLR,,0.84,WeatherDisplay:10.37,2013-02-10 19:49:00,
2013-02-10 14:54:00,50.2,18.3,29.70,East,95,4.6,4.6,28,0.01,CLR,,0.84,WeatherDisplay:10.37,2013-02-10 19:54:00,
2013-02-10 14:59:00,49.9,19.7,29.69,SE,130,3.5,3.5,30,0.01,CLR,,0.84,WeatherDisplay:10.37,2013-02-10 19:59:00,
2013-02-10 15:04:00,49.8,18.0,29.69,East,99,4.6,4.6,28,0.01,CLR,,0.84,WeatherDisplay:10.37,2013-02-10 20:04:00,
2013-02-10 15:09:00,50.1,19.8,29.69,ENE,72,1.1,1.1,30,0.02,RA,,0.85,WeatherDisplay:10.37,2013-02-10 20:09:00,
2013-02-10 15:14:00,50.4,19.3,29.68,South,191,1.1,0.0,29,0.02,RA,,0.85,WeatherDisplay:10.37,2013-02-10 20:14:00,
2013-02-10 15:19:00,51.1,19.1,29.68,SSE,157,2.3,2.3,28,0.01,CLR,,0.85,WeatherDisplay:10.37,2013-02-10 20:19:00,
2013-02-10 15:24:00,51.4,17.6,29.68,SW,217,2.3,2.3,26,0.01,CLR,,0.85,WeatherDisplay:10.37,2013-02-10 20:24:00,
2013-02-10 15:29:00,51.4,17.6,29.66,SE,136,1.1,1.1,26,0.01,CLR,,0.85,WeatherDisplay:10.37,2013-02-10 20:29:00,
2013-02-10 15:34:00,51.3,18.4,29.66,ESE,123,2.0,2.0,27,0.01,CLR,,0.85,WeatherDisplay:10.37,2013-02-10 20:34:00,
2013-02-10 15:39:00,51.1,19.1,29.66,SE,141,0.0,0.3,28,0.01,CLR,,0.85,WeatherDisplay:10.37,2013-02-10 20:39:00,
2013-02-10 15:44:00,51.6,18.7,29.67,SE,141,0.0,0.0,27,0.01,CLR,,0.85,WeatherDisplay:10.37,2013-02-10 20:44:00,
2013-02-10 15:49:00,51.3,17.5,29.67,SE,144,1.1,1.1,26,0.01,CLR,,0.85,WeatherDisplay:10.37,2013-02-10 20:49:00,
2013-02-10 15:54:00,51.3,18.4,29.67,SW,227,2.3,2.3,27,0.01,CLR,,0.85,WeatherDisplay:10.37,2013-02-10 20:54:00,
2013-02-10 15:59:00,51.1,18.2,29.67,South,169,2.3,2.3,27,0.01,CLR,,0.85,WeatherDisplay:10.37,2013-02-10 20:59:00,
2013-02-10 16:04:00,50.8,18.0,29.67,SSE,167,3.5,3.5,27,0.01,CLR,,0.85,WeatherDisplay:10.37,2013-02-10 21:04:00,
2013-02-10 16:09:00,50.8,18.8,29.67,SSE,167,0.0,0.0,28,0.00,CLR,,0.85,WeatherDisplay:10.37,2013-02-10 21:09:00,
2013-02-10 16:14:00,50.8,18.8,29.66,SE,127,0.0,0.0,28,0.00,CLR,,0.85,WeatherDisplay:10.37,2013-02-10 21:14:00,
2013-02-10 16:19:00,50.8,18.0,29.66,SE,127,1.1,0.0,27,0.00,CLR,,0.85,WeatherDisplay:10.37,2013-02-10 21:19:00,
2013-02-10 16:24:00,50.8,18.8,29.66,ESE,120,0.0,0.0,28,0.00,CLR,,0.85,WeatherDisplay:10.37,2013-02-10 21:24:00,
2013-02-10 16:29:00,50.8,18.8,29.67,ESE,120,0.0,0.0,28,0.00,CLR,,0.85,WeatherDisplay:10.37,2013-02-10 21:29:00,
2013-02-10 16:34:00,50.8,18.8,29.67,ESE,123,0.0,0.2,28,0.00,CLR,,0.85,WeatherDisplay:10.37,2013-02-10 21:34:00,
2013-02-10 16:39:00,50.7,18.7,29.67,ESE,123,1.0,0.0,28,0.00,CLR,,0.85,WeatherDisplay:10.37,2013-02-10 21:39:00,
2013-02-10 16:44:00,50.5,19.4,29.67,SE,143,0.0,0.0,29,0.00,CLR,,0.85,WeatherDisplay:10.37,2013-02-10 21:44:00,
2013-02-10 16:49:00,50.4,18.5,29.67,SE,138,0.0,0.0,28,0.00,CLR,,0.85,WeatherDisplay:10.37,2013-02-10 21:49:00,
2013-02-10 16:54:00,50.2,20.7,29.67,SE,138,0.0,0.0,31,0.00,CLR,,0.85,WeatherDisplay:10.37,2013-02-10 21:54:00,
2013-02-10 16:59:00,50.1,20.6,29.66,ESE,113,0.0,0.0,31,0.00,CLR,,0.85,WeatherDisplay:10.37,2013-02-10 21:59:00,
2013-02-10 17:04:00,49.9,21.2,29.66,ESE,113,0.0,0.0,32,0.00,CLR,,0.85,WeatherDisplay:10.37,2013-02-10 22:04:00,
2013-02-10 17:09:00,49.6,20.9,29.66,ESE,113,0.0,0.0,32,0.00,CLR,,0.85,WeatherDisplay:10.37,2013-02-10 22:09:00,
2013-02-10 17:14:00,49.5,21.5,29.66,SE,126,0.0,0.0,33,0.00,CLR,,0.85,WeatherDisplay:10.37,2013-02-10 22:14:00,
2013-02-10 17:19:00,49.2,22.0,29.66,SE,126,0.0,0.0,34,0.00,CLR,,0.85,WeatherDisplay:10.37,2013-02-10 22:19:00,
2013-02-10 17:24:00,48.9,23.1,29.66,SE,126,0.0,0.0,36,0.00,CLR,,0.85,WeatherDisplay:10.37,2013-02-10 22:24:00,
2013-02-10 17:29:00,48.6,22.1,29.66,SE,126,0.0,0.0,35,0.00,CLR,,0.85,WeatherDisplay:10.37,2013-02-10 22:29:00,
2013-02-10 17:34:00,48.3,22.5,29.66,SE,126,0.0,0.0,36,0.00,CLR,,0.85,WeatherDisplay:10.37,2013-02-10 22:34:00,
2013-02-10 17:39:00,48.2,21.8,29.66,SE,126,0.0,0.0,35,0.00,CLR,,0.85,WeatherDisplay:10.37,2013-02-10 22:39:00,
2013-02-10 17:44:00,48.0,23.6,29.65,SE,126,0.0,0.0,38,0.00,CLR,,0.85,WeatherDisplay:10.37,2013-02-10 22:44:00,
2013-02-10 17:49:00,47.7,23.3,29.65,SE,126,0.0,0.0,38,0.00,CLR,,0.85,WeatherDisplay:10.37,2013-02-10 22:49:00,
2013-02-10 17:54:00,47.4,23.0,29.65,SE,126,0.0,0.0,38,0.00,CLR,,0.85,WeatherDisplay:10.37,2013-02-10 22:54:00,
2013-02-10 17:59:00,47.0,22.7,29.66,SE,126,0.0,0.0,38,0.00,CLR,,0.85,WeatherDisplay:10.37,2013-02-10 22:59:00,
2013-02-10 18:04:00,46.5,22.8,29.66,SE,126,0.0,0.0,39,0.00,CLR,,0.85,WeatherDisplay:10.37,2013-02-10 23:04:00,
2013-02-10 18:09:00,46.2,23.8,29.66,SE,126,0.0,0.0,41,0.00,CLR,,0.85,WeatherDisplay:10.37,2013-02-10 23:09:00,
2013-02-10 18:14:00,46.1,23.1,29.65,SE,126,0.0,0.0,40,0.00,CLR,,0.85,WeatherDisplay:10.37,2013-02-10 23:14:00,
2013-02-10 18:19:00,46.0,23.0,29.65,SE,126,0.0,0.0,40,0.00,CLR,,0.85,WeatherDisplay:10.37,2013-02-10 23:19:00,
2013-02-10 18:24:00,45.8,22.2,29.65,SE,126,0.0,0.0,39,0.00,CLR,,0.85,WeatherDisplay:10.37,2013-02-10 23:24:00,
2013-02-10 18:29:00,45.8,22.8,29.63,SE,126,0.0,0.0,40,0.00,CLR,,0.85,WeatherDisplay:10.37,2013-02-10 23:29:00,
2013-02-10 18:34:00,45.8,22.2,29.63,SE,126,0.0,0.0,39,0.00,CLR,,0.85,WeatherDisplay:10.37,2013-02-10 23:34:00,
2013-02-10 18:40:00,45.8,23.4,29.63,SE,126,0.0,0.0,41,0.00,CLR,,0.85,WeatherDisplay:10.37,2013-02-10 23:40:00,
2013-02-10 18:45:00,45.7,22.7,29.62,SE,126,1.1,0.0,40,0.00,CLR,,0.85,WeatherDisplay:10.37,2013-02-10 23:45:00,
2013-02-10 18:50:00,45.5,23.1,29.62,SE,126,0.0,0.1,41,0.00,CLR,,0.85,WeatherDisplay:10.37,2013-02-10 23:50:00,
2013-02-10 18:55:00,45.4,23.6,29.62,SE,126,0.0,0.0,42,0.00,CLR,,0.85,WeatherDisplay:10.37,2013-02-10 23:55:00,
2013-02-10 19:00:00,45.2,22.9,29.63,SE,126,0.0,0.0,41,0.00,CLR,,0.85,WeatherDisplay:10.37,2013-02-11 00:00:00,
2013-02-10 19:05:00,45.2,23.4,29.63,SE,126,0.0,0.0,42,0.00,CLR,,0.85,WeatherDisplay:10.37,2013-02-11 00:05:00,
2013-02-10 19:10:00,45.1,22.8,29.63,SE,126,0.0,0.0,41,0.00,CLR,,0.85,WeatherDisplay:10.37,2013-02-11 00:10:00,
2013-02-10 19:15:00,45.1,22.8,29.64,SE,126,0.0,0.0,41,0.00,CLR,,0.85,WeatherDisplay:10.37,2013-02-11 00:15:00,
2013-02-10 19:20:00,45.1,22.8,29.64,SE,126,0.0,0.0,41,0.00,CLR,,0.85,WeatherDisplay:10.37,2013-02-11 00:20:00,
2013-02-10 19:25:00,45.1,22.8,29.64,SE,126,0.0,0.0,41,0.00,CLR,,0.85,WeatherDisplay:10.37,2013-02-11 00:25:00,
2013-02-10 19:30:00,44.9,22.6,29.64,SE,126,0.0,0.0,41,0.00,CLR,,0.85,WeatherDisplay:10.37,2013-02-11 00:30:00,
2013-02-10 19:35:00,45.1,23.3,29.64,SE,126,0.0,0.0,42,0.00,CLR,,0.85,WeatherDisplay:10.37,2013-02-11 00:35:00,
2013-02-10 19:40:00,45.1,23.3,29.64,SE,126,0.0,0.0,42,0.00,CLR,,0.85,WeatherDisplay:10.37,2013-02-11 00:40:00,
2013-02-10 19:45:00,44.9,23.7,29.64,SE,126,0.0,0.0,43,0.00,CLR,,0.85,WeatherDisplay:10.37,2013-02-11 00:45:00,
2013-02-10 19:50:00,44.9,23.7,29.64,SE,126,0.0,0.0,43,0.00,CLR,,0.85,WeatherDisplay:10.37,2013-02-11 00:50:00,
2013-02-10 19:55:00,44.9,24.3,29.64,SE,126,0.0,0.0,44,0.00,CLR,,0.85,WeatherDisplay:10.37,2013-02-11 00:55:00,
2013-02-10 20:00:00,44.8,24.2,29.64,SE,126,0.0,0.0,44,0.00,CLR,,0.85,WeatherDisplay:10.37,2013-02-11 01:00:00,
2013-02-10 20:05:00,44.8,25.3,29.64,SE,126,0.0,0.0,46,0.00,CLR,,0.85,WeatherDisplay:10.37,2013-02-11 01:05:00,
2013-02-10 20:10:00,44.6,24.5,29.64,SE,126,0.0,0.0,45,0.00,CLR,,0.85,WeatherDisplay:10.37,2013-02-11 01:10:00,
2013-02-10 20:15:00,44.8,24.7,29.64,SE,126,0.0,0.0,45,0.00,CLR,,0.85,WeatherDisplay:10.37,2013-02-11 01:15:00,
2013-02-10 20:20:00,44.8,24.7,29.64,SE,126,0.0,0.0,45,0.00,CLR,,0.85,WeatherDisplay:10.37,2013-02-11 01:20:00,
2013-02-10 20:25:00,44.9,24.8,29.64,SE,126,0.0,0.0,45,0.00,CLR,,0.85,WeatherDisplay:10.37,2013-02-11 01:25:00,
2013-02-10 20:30:00,44.9,25.3,29.64,SE,126,0.0,0.0,46,0.00,CLR,,0.85,WeatherDisplay:10.37,2013-02-11 01:30:00,
2013-02-10 20:35:00,44.9,25.9,29.64,SE,126,0.0,0.0,47,0.00,CLR,,0.85,WeatherDisplay:10.37,2013-02-11 01:35:00,
2013-02-10 20:40:00,44.8,25.3,29.64,SE,126,0.0,0.0,46,0.00,CLR,,0.85,WeatherDisplay:10.37,2013-02-11 01:40:00,
2013-02-10 20:45:00,44.8,25.8,29.63,SE,126,0.0,0.0,47,0.00,CLR,,0.85,WeatherDisplay:10.37,2013-02-11 01:45:00,
2013-02-10 20:50:00,44.9,25.3,29.63,SE,126,0.0,0.0,46,0.00,CLR,,0.85,WeatherDisplay:10.37,2013-02-11 01:50:00,
2013-02-10 20:55:00,45.1,25.0,29.63,SE,126,0.0,0.0,45,0.00,CLR,,0.85,WeatherDisplay:10.37,2013-02-11 01:55:00,
2013-02-10 21:00:00,45.1,25.0,29.63,SE,126,0.0,0.0,45,0.00,CLR,,0.85,WeatherDisplay:10.37,2013-02-11 02:00:00,
2013-02-10 21:05:00,45.2,25.1,29.63,SE,126,0.0,0.0,45,0.00,CLR,,0.85,WeatherDisplay:10.37,2013-02-11 02:05:00,
2013-02-10 21:10:00,45.2,25.1,29.63,SE,126,0.0,0.0,45,0.00,CLR,,0.85,WeatherDisplay:10.37,2013-02-11 02:10:00,
2013-02-10 21:15:00,45.2,25.6,29.64,SE,126,0.0,0.0,46,0.00,CLR,,0.85,WeatherDisplay:10.37,2013-02-11 02:15:00,
2013-02-10 21:20:00,45.2,26.1,29.64,SE,126,0.0,0.0,47,0.00,CLR,,0.85,WeatherDisplay:10.37,2013-02-11 02:20:00,
2013-02-10 21:25:00,45.2,26.1,29.64,SE,126,0.0,0.0,47,0.00,CLR,,0.85,WeatherDisplay:10.37,2013-02-11 02:25:00,
2013-02-10 21:30:00,45.1,26.6,29.63,SE,126,0.0,0.0,48,0.00,CLR,,0.85,WeatherDisplay:10.37,2013-02-11 02:30:00,
2013-02-10 21:35:00,45.2,26.7,29.63,SE,126,0.0,0.0,48,0.00,CLR,,0.85,WeatherDisplay:10.37,2013-02-11 02:35:00,
2013-02-10 21:40:00,45.2,26.1,29.63,SE,126,0.0,0.0,47,0.00,CLR,,0.85,WeatherDisplay:10.37,2013-02-11 02:40:00,
2013-02-10 21:45:00,45.2,26.7,29.63,SE,126,0.0,0.0,48,0.00,CLR,,0.85,WeatherDisplay:10.37,2013-02-11 02:45:00,
2013-02-10 21:50:00,45.2,26.7,29.63,SE,126,0.0,0.0,48,0.00,CLR,,0.85,WeatherDisplay:10.37,2013-02-11 02:50:00,
2013-02-10 21:55:00,45.2,26.7,29.63,SE,126,0.0,0.0,48,0.00,CLR,,0.85,WeatherDisplay:10.37,2013-02-11 02:55:00,
2013-02-10 22:00:00,45.2,26.7,29.63,SE,126,0.0,0.0,48,0.00,CLR,,0.85,WeatherDisplay:10.37,2013-02-11 03:00:00,
2013-02-10 22:05:00,45.2,26.7,29.63,SE,126,0.0,0.0,48,0.00,CLR,,0.85,WeatherDisplay:10.37,2013-02-11 03:05:00,
2013-02-10 22:10:00,45.4,27.3,29.63,SE,126,0.0,0.0,49,0.00,CLR,,0.85,WeatherDisplay:10.37,2013-02-11 03:10:00,
2013-02-10 22:15:00,45.4,27.3,29.63,SE,126,0.0,0.0,49,0.00,CLR,,0.85,WeatherDisplay:10.37,2013-02-11 03:15:00,
2013-02-10 22:20:00,45.5,27.4,29.63,SE,126,0.0,0.0,49,0.00,CLR,,0.85,WeatherDisplay:10.37,2013-02-11 03:20:00,
2013-02-10 22:25:00,45.8,27.7,29.63,SE,126,1.1,1.1,49,0.00,CLR,,0.85,WeatherDisplay:10.37,2013-02-11 03:25:00,
2013-02-10 22:30:00,46.1,28.5,29.62,SSE,148,2.3,2.3,50,0.00,CLR,,0.85,WeatherDisplay:10.37,2013-02-11 03:30:00,
2013-02-10 22:35:00,46.2,29.1,29.62,SSE,148,2.3,0.0,51,0.00,CLR,,0.85,WeatherDisplay:10.37,2013-02-11 03:35:00,
2013-02-10 22:40:00,46.5,30.3,29.62,SE,144,2.3,2.3,53,0.00,CLR,,0.85,WeatherDisplay:10.37,2013-02-11 03:40:00,
2013-02-10 22:45:00,46.7,31.4,29.61,SE,136,2.3,2.3,55,0.00,CLR,,0.85,WeatherDisplay:10.37,2013-02-11 03:45:00,
2013-02-10 22:50:00,47.0,32.5,29.61,South,176,4.6,4.6,57,0.00,CLR,,0.85,WeatherDisplay:10.37,2013-02-11 03:50:00,
2013-02-10 22:55:00,46.8,33.2,29.61,South,174,2.3,2.3,59,0.00,CLR,,0.85,WeatherDisplay:10.37,2013-02-11 03:55:00,
2013-02-10 23:00:00,46.7,34.4,29.60,South,182,2.3,2.3,62,0.00,CLR,,0.85,WeatherDisplay:10.37,2013-02-11 04:00:00,
2013-02-10 23:05:00,46.2,35.8,29.60,ESE,110,2.3,2.3,67,0.00,CLR,,0.85,WeatherDisplay:10.37,2013-02-11 04:05:00,
2013-02-10 23:10:00,45.4,37.2,29.60,ESE,110,1.1,0.0,73,0.00,CLR,,0.85,WeatherDisplay:10.37,2013-02-11 04:10:00,
2013-02-10 23:15:00,44.6,37.5,29.59,ESE,110,1.1,0.0,76,0.00,CLR,,0.85,WeatherDisplay:10.37,2013-02-11 04:15:00,
2013-02-10 23:20:00,44.2,38.1,29.59,ESE,110,1.0,0.0,79,0.00,CLR,,0.85,WeatherDisplay:10.37,2013-02-11 04:20:00,
2013-02-10 23:25:00,43.9,38.4,29.59,SE,137,0.0,0.0,81,0.00,CLR,,0.85,WeatherDisplay:10.37,2013-02-11 04:25:00,
2013-02-10 23:30:00,43.8,38.7,29.57,SE,137,2.3,2.3,82,0.00,CLR,,0.85,WeatherDisplay:10.37,2013-02-11 04:30:00,
2013-02-10 23:35:00,43.8,39.0,29.57,SE,137,1.1,0.0,83,0.00,CLR,,0.85,WeatherDisplay:10.37,2013-02-11 04:35:00,
2013-02-10 23:40:00,43.6,39.1,29.57,SSE,158,2.0,2.0,84,0.00,CLR,,0.85,WeatherDisplay:10.37,2013-02-11 04:40:00,
2013-02-10 23:45:00,43.5,39.3,29.55,SE,138,0.0,0.0,85,0.00,CLR,,0.85,WeatherDisplay:10.37,2013-02-11 04:45:00,
2013-02-10 23:50:00,43.3,39.1,29.55,SE,138,0.0,0.0,85,0.00,CLR,,0.85,WeatherDisplay:10.37,2013-02-11 04:50:00,
2013-02-10 23:55:00,43.3,39.4,29.55,SE,137,1.1,1.1,86,0.00,CLR,,0.85,WeatherDisplay:10.37,2013-02-11 04:55:00,